Terminal Aerodrome Forecast
Issued by NWS

Home | Current Version | Previous Version | Text Only | Print | Product List | Glossary On
Versions: 1 2 3 4 5 6 7 8 9 10 11 12 13 14 15 16 17 18 19 20 21 22 23 24 25 26 27 28 29 30
000
FTAK31 PANC 231148 CCA
TAFAGK
TAF COR
PAGK 231148Z 2312/2412 16008KT P6SM BKN150
     FM231500 16007KT P6SM -SHRA BKN060
     FM232100 16010G18KT P6SM VCSH SCT060 BKN100
     FM240800 17005KT P6SM BKN100=

USA.gov is the U.S. government's official web portal to all federal, state and local government web resources and services.